Regional Weather Roundup
Issued by NWS Green Bay, WI

Home | Current Version | Previous Version | Text Only | Print | Product List | Glossary On
Versions: 1 2 3 4 5 6 7 8 9 10 11 12 13 14 15 16 17 18 19 20 21 22 23 24 25 26 27 28 29 30 31 32 33 34 35 36 37 38 39 40 41 42 43 44 45 46 47 48 49 50
000
ASUS43 KGRB 010311
RWRGRB

NORTH-CENTRAL AND NORTHEAST WISCONSIN REGIONAL WEATHER ROUNDUP
NATIONAL WEATHER SERVICE GREEN BAY WI
1000 PM CDT FRI JUL 31 2015

WIZ005-009-010>012-018-019-010400-
NORTH CENTRAL WISCONSIN

CITY           SKY/WX    TMP DP  RH WIND       PRES   REMARKS
IRONWOOD       CLEAR     61  57  88 SW5       29.90R
MANITOWISH WTR PTCLDY    56  56 100 CALM      29.94S
ARBOR VITAE    PTCLDY    59  57  92 CALM      29.94S
EAGLE RIVER    CLEAR     55  54  95 CALM      29.94R
LAND O LAKES   MOCLDY    59  54  83 W5        29.94S
RHINELANDER    MOCLDY    57  55  93 W5        29.96R
PHILLIPS       PTCLDY    58  58 100 CALM      29.95R
ANTIGO         PTCLDY    56  54  93 CALM      29.96R
TOMAHAWK       CLEAR     54  53  95 CALM      29.96R FOG
MERRILL        NOT AVBL
$$

WIZ013-073-010400-
NORTHEAST WISCONSIN

CITY           SKY/WX    TMP DP  RH WIND       PRES   REMARKS
IRON MOUNTAIN  CLEAR     64  50  60 W5        29.89R
MARINETTE      PTCLDY    68  50  52 CALM      29.90R
OCONTO         MOCLDY    65  55  68 W5        29.91R
$$

WIZ017-030-035>037-045-010400-
CENTRAL WISCONSIN

CITY           SKY/WX    TMP DP  RH WIND       PRES   REMARKS
MEDFORD        CLEAR     64  53  68 W3        29.97R
WAUSAU         CLEAR     64  55  72 SW5       29.95R
MOSINEE        CLEAR     64  55  72 CALM      29.97R
MARSHFIELD     CLEAR     65  51  60 W6        29.97R
WISC RAPIDS    CLEAR     66  51  58 W6        29.98R
STEVENS POINT  CLEAR     61  53  73 CALM      29.97R
WAUPACA        MOCLDY    69  55  60 CALM      29.96R
SHAWANO        MOCLDY    66  56  71 W6        29.94S
CLINTONVILLE   CLOUDY    66  52  59 NW5       29.94R
$$

WIZ038-039-048-051-010400-
FOX VALLEY

CITY           SKY/WX    TMP DP  RH WIND       PRES   REMARKS
NWS GREEN BAY  PTCLDY    65  55  70 W8        29.93R
APPLETON       MOCLDY    66  54  63 VRB5      29.96R
OSHKOSH        MOCLDY    71  53  52 NW6       29.95R
FOND DU LAC    CLEAR     66  53  63 NW6       29.96R
$$

WIZ022-050-052-010400-
EAST CENTRAL WISCONSIN

CITY           SKY/WX    TMP DP  RH WIND       PRES   REMARKS
STURGEON BAY   PTCLDY    70  52  52 W7        29.93R
MANITOWOC      CLOUDY    72  50  45 MISG      29.93R
SHEBOYGAN      CLOUDY    71  54  54 NW7       29.94R
$$

LMZ563-521-522-541>543-010400-
LAKESHORE

STATION/POSITION TIME  TEMP    WIND        PRES    VSBY  WAVE
                       AIR SEA DIR/SP/G                  HT/PER
                 (UTC) (F)     (DEG/KT/KT) (MB)    (MI)  (FT/S)
SHEBOYGAN LKSHOR 0300   73     300/  9/ 10 1013.7R
KEWAUNEE LKSHORE 0200   72     300/  6/ 10 1011.9R
ALGOMA MARINA    0242          320/  4/  8   N/A
NORTHPORT PIER   0200   72     300/  8/ 13 1011.5R
N MID LAKE BUOY  0250   69 68  310/  4/  4 1011.0R         1/ 3
S GREEN BAY BUOY 0300   68 71  280/  8/ 10 1014.3
SISTER BAY LKSHO 0244   72     320/ 14/ 16   N/A
CHAMBERS ISLAND  0200   70     300/  3/  6 1011.9R
MENOMINEE LKSHOR 0200   73     290/  7/ 11 1012.8R
$$



USA.gov is the U.S. government's official web portal to all federal, state and local government web resources and services.